Weather History for Hailey, ID

Change the Weather History Date:

Tuesday, December 11, 2012

  Actual Average Record
Temperature  
Mean Temperature 30 °F -  
Max Temperature 37 °F 33 °F 51 °F (2001)
Min Temperature 23 °F 15 °F 0 °F (2013)
Degree Days  
Heating Degree Days 35    
Moisture  
Dew Point 23 °F    
Average Humidity 79    
Maximum Humidity 100    
Minimum Humidity 56    
Precipitation  
Precipitation 0.00 in - - ()
Sea Level Pressure  
Sea Level Pressure 29.88 in    
Wind  
Wind Speed 5 mph (NW)    
Max Wind Speed 12 mph    
Max Gust Speed -    
Visibility 9 miles    
Events Snow    
Averages and records for this station are not official NWS values.
T = Trace of Precipitation, MM = Missing Value Source: NWS Daily Summary

Daily Weather History Graph

Daily Weather History Graph

Search for Another Location

Airport:

Trip Planner

Search our weather history database for the weather conditions in past years. The results will help you decide how hot, cold, wet, or windy it might be!

Date:

Astronomy

Dec. 11, 2012 Rise Set
Actual Time 8:00 AM MST 5:00 PM MST
Civil Twilight 7:27 AM MST 5:33 PM MST
Nautical Twilight 6:51 AM MST 6:09 PM MST
Astronomical Twilight 6:17 AM MST 6:44 PM MST
Moon 5:58 AM MST (12/11) 3:44 PM MST (12/11)
Length of Visible Light 10h 05m
Length of Day
9h 00m
Waning Crescent, 4% of the Moon is Illuminated
Dec 11
Waning Crescent
Dec 13
New
Dec 19
First Quarter
Dec 28
Full
Jan 4
Last Quarter

Hourly Weather History & Observations

Time (MST) Temp. Windchill Dew Point Humidity Pressure Visibility Wind Dir Wind Speed Gust Speed Precip Events Conditions
12:15 AM 23.0 °F - 17.6 °F 80% 30.05 in 10.0 mi Calm Calm - N/A   Clear
12:35 AM 23.0 °F 17.0 °F 17.6 °F 80% 30.06 in 10.0 mi NNE 4.6 mph - N/A   Clear
12:55 AM 24.8 °F 19.1 °F 17.6 °F 74% 30.04 in 10.0 mi NNW 4.6 mph - N/A   Clear
1:15 AM 24.8 °F 16.9 °F 17.6 °F 74% 30.04 in 10.0 mi NNW 6.9 mph - N/A   Clear
1:35 AM 24.8 °F 16.1 °F 17.6 °F 74% 30.04 in 10.0 mi NNW 8.1 mph - N/A   Clear
1:55 AM 26.6 °F 17.5 °F 17.6 °F 69% 30.03 in 10.0 mi NW 9.2 mph - N/A   Clear
2:15 AM 24.8 °F 14.6 °F 19.4 °F 80% 30.03 in 10.0 mi NNW 10.4 mph - N/A   Clear
2:35 AM 26.6 °F 16.8 °F 19.4 °F 74% 30.03 in 10.0 mi NW 10.4 mph - N/A   Clear
2:55 AM 26.6 °F 16.8 °F 19.4 °F 74% 30.03 in 10.0 mi NW 10.4 mph - N/A   Clear
3:15 AM 26.6 °F 17.5 °F 19.4 °F 74% 30.01 in 10.0 mi NW 9.2 mph - N/A   Clear
3:35 AM 26.6 °F 17.5 °F 19.4 °F 74% 30.00 in 10.0 mi NW 9.2 mph - N/A   Clear
3:55 AM 26.6 °F 16.2 °F 19.4 °F 74% 30.00 in 10.0 mi WNW 11.5 mph - N/A   Clear
4:15 AM 26.6 °F 17.5 °F 19.4 °F 74% 29.99 in 10.0 mi NW 9.2 mph - N/A   Clear
4:35 AM 26.6 °F 16.8 °F 19.4 °F 74% 29.98 in 10.0 mi NW 10.4 mph - N/A   Clear
4:55 AM 26.6 °F 17.5 °F 19.4 °F 74% 29.98 in 10.0 mi WNW 9.2 mph - N/A   Clear
5:15 AM 26.6 °F 21.2 °F 19.4 °F 74% 29.98 in 10.0 mi NNW 4.6 mph - N/A   Clear
5:35 AM 26.6 °F 20.0 °F 19.4 °F 74% 29.98 in 10.0 mi North 5.8 mph - N/A   Clear
5:55 AM 24.8 °F 17.9 °F 19.4 °F 80% 29.98 in 10.0 mi NW 5.8 mph - N/A   Clear
6:47 AM 24.8 °F 16.9 °F 17.6 °F 74% 29.97 in 10.0 mi West 6.9 mph - N/A   Scattered Clouds
7:47 AM 24.8 °F 19.1 °F 17.6 °F 74% 29.96 in 10.0 mi NNW 4.6 mph - N/A   Scattered Clouds
8:47 AM 24.8 °F 14.6 °F 17.6 °F 74% 29.95 in 10.0 mi West 10.4 mph - N/A   Mostly Cloudy
9:51 AM 26.6 °F 18.2 °F 19.4 °F 74% 29.93 in 10.0 mi WNW 8.1 mph - N/A   Mostly Cloudy
10:47 AM 30.2 °F 22.6 °F 21.2 °F 69% 29.93 in 10.0 mi NNW 8.1 mph - N/A   Scattered Clouds
11:47 AM 33.8 °F 30.8 °F 19.4 °F 56% 29.90 in 10.0 mi WNW 3.5 mph - N/A   Mostly Cloudy
12:47 PM 35.6 °F 30.7 °F 21.2 °F 56% 29.86 in 10.0 mi ESE 5.8 mph - N/A   Mostly Cloudy
1:50 PM 35.6 °F 31.7 °F 24.8 °F 65% 29.81 in 10.0 mi SE 4.6 mph - N/A   Mostly Cloudy
2:50 PM 37.4 °F 31.4 °F 26.6 °F 65% 29.79 in 10.0 mi SSE 8.1 mph - N/A   Mostly Cloudy
3:47 PM 35.6 °F 27.5 °F 28.4 °F 75% 29.78 in 10.0 mi SE 11.5 mph - N/A   Overcast
4:50 PM 33.8 °F - 28.4 °F 81% 29.76 in 10.0 mi Calm Calm - N/A   Mostly Cloudy
5:47 PM 32.0 °F - 28.4 °F 87% 29.74 in 10.0 mi Calm Calm - N/A   Mostly Cloudy
6:47 PM 32.0 °F - 28.4 °F 87% 29.71 in 10.0 mi Calm Calm - N/A   Mostly Cloudy
7:47 PM 32.0 °F 26.4 °F 28.4 °F 87% 29.69 in 10.0 mi NW 5.8 mph - N/A   Overcast
8:47 PM 33.8 °F 28.6 °F 28.4 °F 81% 29.68 in 10.0 mi NW 5.8 mph - N/A   Mostly Cloudy
9:47 PM 32.0 °F - 28.4 °F 87% 29.67 in 10.0 mi Calm Calm - N/A   Overcast
10:15 PM 32.0 °F - 30.2 °F 93% 29.67 in 4.0 mi Calm Calm - N/A Snow Light Snow
10:35 PM 32.0 °F - 30.2 °F 93% 29.68 in 2.0 mi Calm Calm - N/A Snow Light Snow
10:47 PM 30.2 °F - 30.2 °F 100% 29.68 in 2.0 mi Calm Calm - N/A Snow Light Snow
10:55 PM 32.0 °F - 30.2 °F 93% 29.67 in 0.8 mi Calm Calm - N/A Snow Light Snow
11:15 PM 32.0 °F 27.5 °F 32.0 °F 100% 29.65 in 1.5 mi West 4.6 mph - N/A Snow Light Snow
11:35 PM 32.0 °F 28.7 °F 32.0 °F 100% 29.65 in 1.2 mi NE 3.5 mph - N/A Snow Light Snow
11:55 PM 32.0 °F - 32.0 °F 100% 29.65 in 1.2 mi Calm Calm - N/A Snow Light Snow